Flag for U.S.A. Weather past 2 weeks in Topeka, Kansas, U.S.A.

Now
79 °F

Sunny.


Feels Like: 81 °F
Forecast: 69 / 92 °F
Wind: 5 mph from East

Location: Philip Billard Municipal Airport

Current Time: Aug 30, 2014 at 9:23:56 PM

Latest Report: Aug 30, 2014 at 8:53 PM


Visibility: 10 mi

Pressure: 29.86 "Hg

Humidity: 67%

Dew point: 67 °F

Location of TopekaLocation

Historic Weather in Topeka — Graph

°F

Topeka temperature yesterday

Maximum temperature yesterday: 89 °F (at 4:53 PM)
Minimum temperature yesterday: 71 °F (at 6:53 AM)
Average temperature yesterday: 77 °F

Past Weeks' High & Low Weather Summary

 TemperatureHumidityPressure
High100 °F (Aug 23, 3:53 PM)100% (Aug 17, 3:53 AM)30.14 "Hg (Aug 17, 3:53 AM)
Low64 °F (Aug 17, 5:57 AM)26% (Aug 23, 6:53 PM)29.66 "Hg (Aug 19, 4:53 AM)
Average83 °F66%29.87 "Hg
* Reported Aug 15 7:53 PM — Aug 30 7:53 PM, Topeka, Weather by CustomWeather, © 2014

Note: Actual official high and low records may vary slightly from our data, if they occured in-between our weather recording intervals... More about our weather records

Advertising

Topeka weather history for previous 24 hours

 ConditionsComfort  
Time TempWeatherWind HumidityBarometerVisibility
7:53 PM
Aug 30
83 °FSunny.5 mph59%29.85 "Hg10 mi
6:53 PM88 °FSunny.5 mph48%29.84 "Hg10 mi
5:53 PM88 °FSunny.3 mph46%29.83 "Hg10 mi
4:53 PM90 °FSunny.3 mph41%29.83 "Hg10 mi
3:53 PM91 °FSunny.No wind42%29.85 "Hg10 mi
2:53 PM89 °FPassing clouds.7 mph46%29.88 "Hg10 mi
1:53 PM89 °FPassing clouds.5 mph48%29.89 "Hg10 mi
12:53 PM87 °FSunny.6 mph53%29.90 "Hg10 mi
11:53 AM83 °FSunny.No wind63%29.92 "Hg10 mi
10:53 AM80 °FSunny.No wind71%29.92 "Hg10 mi
9:53 AM78 °FSunny.No wind76%29.92 "Hg10 mi
8:53 AM73 °FSunny.5 mph88%29.92 "Hg10 mi
7:53 AM70 °FSunny.3 mph93%29.92 "Hg10 mi
6:53 AM68 °FClear.5 mph96%29.90 "Hg8 mi
5:53 AM69 °FClear.No wind93%29.88 "Hg9 mi
4:53 AM70 °FClear.No wind93%29.86 "Hg10 mi
3:53 AM71 °FClear.3 mph93%29.85 "Hg10 mi
2:53 AM68 °FClear.6 mph96%29.85 "Hg10 mi
1:53 AM72 °FClear.No wind87%29.85 "Hg10 mi
12:53 AM74 °FClear.5 mph88%29.84 "Hg10 mi
11:53 PM
Aug 29
74 °FPassing clouds.5 mph88%29.85 "Hg10 mi
10:53 PM75 °FPartly cloudy.3 mph90%29.83 "Hg10 mi
9:53 PM74 °FMostly cloudy.No wind94%29.81 "Hg10 mi
Weather by CustomWeather, © 2014

See weather overviewHow to use our weather pages